TimeCDT,TemperatureF,Dew PointF,Humidity,Sea Level PressureIn,VisibilityMPH,Wind Direction,Wind SpeedMPH,Gust SpeedMPH,PrecipitationIn,Events,Conditions,WindDirDegrees,DateUTC
12:15 AM,8.6,3.2,79,29.67,5.0,WNW,20.7,26.5,N/A,,Overcast,290,2013-03-19 05:15:00
12:35 AM,8.6,3.2,79,29.67,5.0,WNW,21.9,31.1,N/A,,Overcast,300,2013-03-19 05:35:00
12:55 AM,8.6,3.2,79,29.68,4.0,NW,21.9,28.8,N/A,,Overcast,310,2013-03-19 05:55:00
1:15 AM,8.6,3.2,79,29.69,4.0,NW,21.9,31.1,N/A,,Overcast,310,2013-03-19 06:15:00
1:35 AM,8.6,3.2,79,29.69,6.0,WNW,21.9,29.9,N/A,,Overcast,300,2013-03-19 06:35:00
1:55 AM,8.6,3.2,79,29.70,6.0,WNW,17.3,25.3,N/A,,Overcast,300,2013-03-19 06:55:00
2:15 AM,8.6,3.2,79,29.71,10.0,WNW,20.7,26.5,N/A,,Overcast,300,2013-03-19 07:15:00
2:35 AM,8.6,1.4,73,29.72,9.0,WNW,19.6,28.8,N/A,,Overcast,300,2013-03-19 07:35:00
2:55 AM,8.6,1.4,73,29.72,9.0,WNW,19.6,25.3,N/A,,Overcast,300,2013-03-19 07:55:00
3:15 AM,8.6,1.4,73,29.73,8.0,WNW,21.9,28.8,N/A,,Overcast,290,2013-03-19 08:15:00
3:35 AM,8.6,1.4,73,29.74,9.0,NW,19.6,27.6,N/A,,Overcast,310,2013-03-19 08:35:00
3:55 AM,6.8,1.4,79,29.74,10.0,WNW,17.3,23.0,N/A,,Overcast,300,2013-03-19 08:55:00
4:15 AM,6.8,1.4,79,29.75,10.0,WNW,17.3,21.9,N/A,,Overcast,300,2013-03-19 09:15:00
4:35 AM,6.8,1.4,79,29.75,9.0,WNW,16.1,25.3,N/A,,Overcast,300,2013-03-19 09:35:00
4:55 AM,6.8,1.4,79,29.76,9.0,WNW,15.0,24.2,N/A,,Overcast,300,2013-03-19 09:55:00
5:15 AM,5.0,-0.4,78,29.77,10.0,WNW,15.0,25.3,N/A,,Overcast,300,2013-03-19 10:15:00
5:35 AM,3.2,-0.4,85,29.78,10.0,WNW,13.8,20.7,N/A,,Mostly Cloudy,290,2013-03-19 10:35:00
5:55 AM,3.2,-2.2,78,29.79,10.0,WNW,15.0,20.7,N/A,,Scattered Clouds,300,2013-03-19 10:55:00
6:15 AM,3.2,-2.2,78,29.80,10.0,WNW,19.6,23.0,N/A,,Clear,300,2013-03-19 11:15:00
6:35 AM,3.2,-2.2,78,29.80,10.0,WNW,19.6,26.5,N/A,,Clear,300,2013-03-19 11:35:00
6:55 AM,3.2,-2.2,78,29.82,10.0,WNW,16.1,24.2,N/A,,Clear,300,2013-03-19 11:55:00
7:15 AM,1.4,-2.2,85,29.82,10.0,WNW,16.1,24.2,N/A,,Clear,300,2013-03-19 12:15:00
7:35 AM,1.4,-2.2,85,29.84,10.0,WNW,16.1,-,N/A,,Clear,300,2013-03-19 12:35:00
7:55 AM,1.4,-2.2,85,29.85,9.0,WNW,17.3,26.5,N/A,,Clear,300,2013-03-19 12:55:00
8:15 AM,1.4,-2.2,85,29.86,10.0,WNW,18.4,25.3,N/A,,Clear,300,2013-03-19 13:15:00
8:35 AM,3.2,-2.2,78,29.86,10.0,NW,19.6,25.3,N/A,,Clear,310,2013-03-19 13:35:00
8:55 AM,3.2,-2.2,78,29.87,10.0,WNW,17.3,28.8,N/A,,Clear,300,2013-03-19 13:55:00
9:15 AM,3.2,-2.2,78,29.88,10.0,WNW,17.3,23.0,N/A,,Clear,300,2013-03-19 14:15:00
9:35 AM,5.0,-2.2,72,29.89,10.0,WNW,15.0,23.0,N/A,,Clear,300,2013-03-19 14:35:00
9:55 AM,6.8,-0.4,72,29.89,10.0,NW,20.7,26.5,N/A,,Clear,310,2013-03-19 14:55:00
10:15 AM,8.6,-0.4,67,29.90,10.0,WNW,13.8,19.6,N/A,,Clear,300,2013-03-19 15:15:00
10:35 AM,8.6,-0.4,67,29.91,10.0,WNW,18.4,-,N/A,,Clear,300,2013-03-19 15:35:00
10:55 AM,8.6,-0.4,67,29.91,10.0,WNW,16.1,-,N/A,,Clear,290,2013-03-19 15:55:00
11:15 AM,10.4,-0.4,62,29.91,10.0,WNW,18.4,25.3,N/A,,Clear,300,2013-03-19 16:15:00
11:35 AM,10.4,-0.4,62,29.92,10.0,West,12.7,25.3,N/A,,Clear,280,2013-03-19 16:35:00
11:55 AM,10.4,1.4,67,29.92,10.0,WNW,18.4,25.3,N/A,,Clear,300,2013-03-19 16:55:00
12:15 PM,12.2,1.4,62,29.92,1.8,WNW,17.3,26.5,N/A,,Clear,290,2013-03-19 17:15:00
12:35 PM,12.2,1.4,62,29.93,10.0,NW,21.9,27.6,N/A,,Clear,310,2013-03-19 17:35:00
12:55 PM,12.2,1.4,62,29.93,10.0,WNW,15.0,28.8,N/A,,Clear,290,2013-03-19 17:55:00
1:15 PM,12.2,1.4,62,29.94,9.0,WNW,18.4,26.5,N/A,,Clear,290,2013-03-19 18:15:00
1:35 PM,14.0,1.4,57,29.94,10.0,WNW,18.4,26.5,N/A,,Clear,300,2013-03-19 18:35:00
1:55 PM,15.8,1.4,53,29.95,10.0,WNW,18.4,27.6,N/A,,Clear,300,2013-03-19 18:55:00
2:15 PM,15.8,1.4,53,29.95,10.0,WNW,21.9,28.8,N/A,,Clear,300,2013-03-19 19:15:00
2:35 PM,15.8,1.4,53,29.95,10.0,WNW,19.6,28.8,N/A,,Clear,290,2013-03-19 19:35:00
2:55 PM,15.8,1.4,53,29.95,10.0,WNW,24.2,28.8,N/A,,Clear,300,2013-03-19 19:55:00
3:15 PM,15.8,1.4,53,29.96,10.0,WNW,20.7,27.6,N/A,,Clear,290,2013-03-19 20:15:00
3:35 PM,15.8,1.4,53,29.96,10.0,WNW,24.2,31.1,N/A,,Clear,300,2013-03-19 20:35:00
3:55 PM,17.6,1.4,49,29.96,10.0,WNW,20.7,28.8,N/A,,Clear,290,2013-03-19 20:55:00
4:15 PM,17.6,1.4,49,29.97,10.0,WNW,20.7,27.6,N/A,,Clear,290,2013-03-19 21:15:00
4:35 PM,17.6,1.4,49,29.98,7.0,WNW,18.4,31.1,N/A,,Clear,290,2013-03-19 21:35:00
4:55 PM,17.6,1.4,49,29.99,9.0,WNW,21.9,29.9,N/A,,Clear,300,2013-03-19 21:55:00
5:15 PM,15.8,1.4,53,30.00,10.0,WNW,17.3,26.5,N/A,,Clear,300,2013-03-19 22:15:00
5:35 PM,15.8,-0.4,49,30.00,10.0,WNW,23.0,27.6,N/A,,Clear,300,2013-03-19 22:35:00
5:55 PM,15.8,-0.4,49,30.01,10.0,WNW,17.3,29.9,N/A,,Clear,300,2013-03-19 22:55:00
6:15 PM,15.8,-2.2,45,30.02,10.0,WNW,19.6,29.9,N/A,,Clear,300,2013-03-19 23:15:00
6:35 PM,14.0,-2.2,49,30.03,10.0,WNW,19.6,25.3,N/A,,Clear,300,2013-03-19 23:35:00
6:55 PM,12.2,-2.2,53,30.04,10.0,WNW,18.4,26.5,N/A,,Clear,300,2013-03-19 23:55:00
7:15 PM,12.2,-2.2,53,30.04,10.0,WNW,20.7,26.5,N/A,,Clear,290,2013-03-20 00:15:00
7:35 PM,10.4,-2.2,57,30.05,10.0,WNW,17.3,23.0,N/A,,Clear,300,2013-03-20 00:35:00
7:55 PM,10.4,-2.2,57,30.05,10.0,WNW,18.4,27.6,N/A,,Clear,300,2013-03-20 00:55:00
8:15 PM,8.6,-4.0,57,30.06,10.0,WNW,21.9,25.3,N/A,,Clear,300,2013-03-20 01:15:00
8:35 PM,8.6,-4.0,57,30.06,10.0,WNW,16.1,21.9,N/A,,Clear,290,2013-03-20 01:35:00
8:55 PM,8.6,-5.8,52,30.06,10.0,WNW,16.1,24.2,N/A,,Clear,300,2013-03-20 01:55:00
9:15 PM,6.8,-5.8,56,30.06,10.0,WNW,18.4,25.3,N/A,,Clear,300,2013-03-20 02:15:00
9:35 PM,6.8,-5.8,56,30.07,10.0,WNW,16.1,-,N/A,,Clear,300,2013-03-20 02:35:00
9:55 PM,6.8,-5.8,56,30.07,10.0,WNW,19.6,26.5,N/A,,Clear,300,2013-03-20 02:55:00
10:15 PM,6.8,-5.8,56,30.07,10.0,WNW,17.3,25.3,N/A,,Clear,300,2013-03-20 03:15:00
10:35 PM,6.8,-5.8,56,30.07,10.0,WNW,18.4,23.0,N/A,,Clear,300,2013-03-20 03:35:00
10:55 PM,5.0,-5.8,61,30.07,10.0,WNW,16.1,26.5,N/A,,Clear,300,2013-03-20 03:55:00
11:15 PM,5.0,-5.8,61,30.07,10.0,WNW,16.1,23.0,N/A,,Clear,300,2013-03-20 04:15:00
11:35 PM,3.2,-5.8,66,30.07,10.0,WNW,15.0,-,N/A,,Clear,300,2013-03-20 04:35:00
11:55 PM,3.2,-5.8,66,30.06,10.0,WNW,15.0,19.6,N/A,,Clear,300,2013-03-20 04:55:00